Regional Weather Roundup
Issued by NWS Northern Indiana

Home | Current Version | Previous Version | Graphics & Text | Print | Product List | Glossary On
Versions: 1 2 3 4 5 6 7 8 9 10 11 12 13 14 15 16 17 18 19 20 21 22 23 24 25 26 27 28 29 30 31 32 33 34 35 36 37 38 39 40 41 42 43 44 45 46 47 48 49 50
000
ASUS43 KIWX 190800
RWRIWX

KIWX WEATHER ROUNDUP
NATIONAL WEATHER SERVICE NORTHERN INDIANA
400 AM EDT SUN APR 19 2015

NOTE: "FAIR" INDICATES FEW OR NO CLOUDS BELOW 12,000 FEET WITH NO
SIGNIFICANT WEATHER AND/OR OBSTRUCTIONS TO VISIBILITY.

* THESE STATIONS ARE NOT UNDER NWS QUALITY CONTROL. THEY ALSO MAY NOT
  REPORT WEATHER SUCH AS PRECIPITATION OR FOG.

INZ001>027-190900-
NORTHERN INDIANA

CITY           SKY/WX    TMP DP  RH WIND       PRES   REMARKS
SOUTH BEND     CLOUDY    56  27  32 E13       29.97F
GOSHEN         CLOUDY    52  32  46 E13       29.97F
ANGOLA*        CLEAR     52  28  40 E13       30.01F
FORT WAYNE     CLOUDY    50  36  58 E17       29.98F

$$
INZ028>050-190900-
CENTRAL INDIANA

CITY           SKY/WX    TMP DP  RH WIND       PRES   REMARKS
LAFAYETTE      CLOUDY    56  40  55 E14       29.89F
KOKOMO*        MOCLDY    52  37  58 E12       29.93F
MUNCIE*        CLOUDY    53  39  59 E13       29.93F
INDIANAPOLIS   CLOUDY    62  48  60 E14       29.86F

$$
MIZ043>046-050>051-056>058-064>065-071>073-077>080-190900-
SOUTHWEST LOWER MICHIGAN

CITY           SKY/WX    TMP DP  RH WIND       PRES   REMARKS
BATTLE CREEK   MOCLDY    48  28  46 E8        30.04F
BENTON HARBOR  CLOUDY    54  25  32 E14       29.97F
COLDWATER*     MOCLDY    51  24  33 E12G17    30.02F
HILLSDALE*     PTCLDY    50  27  41 E14G23    30.03F
HOLLAND        CLOUDY    49  31  49 E12       30.02F
GRAND RAPIDS   MOCLDY    45  28  51 E15       30.05F
KALAMAZOO      MOCLDY    50  25  37 E6        30.03F
STURGIS*       MOCLDY    52  30  43 E12G18    29.99F
THREE RIVERS*  FAIR      52  26  37 E8        30.01F

$$
OHZ001>008-015>018-024>025-190900-
NORTHWEST OHIO

CITY           SKY/WX    TMP DP  RH WIND       PRES   REMARKS
DEFIANCE       CLOUDY    50  35  56 NE9       30.01F
FINDLAY        CLOUDY    51  36  56 NE14      29.99F
TOLEDO EXPRESS PTCLDY    49  33  54 E14       30.04F
TOLEDO METCALF MOCLDY    48  35  60 NE13G18   30.06F
LIMA           CLOUDY    51  38  60 E10       29.98F

$$
AND FOR LAKE MICHIGAN COASTAL AND OPEN LAKE BUOY OBSERVATIONS

STATION/POSITION TEMP    WIND        PRES    VSBY  WAVE
                 AIR SEA DIR/SP/G                  HT/PER
                 (F)     (DEG/KT/KT) (MB)    (MI)  (FT/S)
CALUMET HARBOR    53     100/  6/  9   N/A
MICHIGAN CITY     57      80/ 13/ 19   N/A
BURNS HARBOR      57     120/ 14/ 20 1013.9S
SAINT JOSEPH      58      60/  2/ 10 1015.6F
MICHIGAN CITY     53 45  120/ 12/ 16   N/A           3/ 6

$$
&&



USA.gov is the U.S. government's official web portal to all federal, state and local government web resources and services.